This is the latest recevied weather packets stored in our database for station/object WA4TPR. If no packets are shown the sender has not sent any weather packets the latest 10 day(s).
| Time | Temp. | Humidity | Pressure | Rain* | Wind** | Luminosity | Snow |
|---|---|---|---|---|---|---|---|
| 1777855201 | 21.67° C | 89% | 1019.5 hPa | 0 mm | - | 0 W/m² | - |
| 1777854897 | 21.67° C | 90% | 1019.4 hPa | 0 mm | - | 0 W/m² | - |
| 1777854594 | 21.67° C | 90% | 1019.5 hPa | 0 mm | - | 0 W/m² | - |
| 1777854291 | 21.67° C | 90% | 1019.4 hPa | 0 mm | - | 0 W/m² | - |
| 1777853988 | 21.11° C | 91% | 1019.4 hPa | 0 mm | - | 0 W/m² | - |
| 1777853686 | 21.11° C | 91% | 1019.4 hPa | 0 mm | - | 0 W/m² | - |
| 1777853382 | 21.11° C | 91% | 1019.2 hPa | 0 mm | - | 0 W/m² | - |
| 1777853079 | 21.11° C | 91% | 1019.4 hPa | 0 mm | - | 1 W/m² | - |
| 1777852777 | 21.11° C | 91% | 1019.1 hPa | 0 mm | - | 1 W/m² | - |
| 1777852474 | 21.11° C | 90% | 1019.1 hPa | 0 mm | - | 2 W/m² | - |
| 1777852171 | 21.11° C | 90% | 1019 hPa | 0 mm | - | 4 W/m² | - |
| 1777851869 | 21.11° C | 90% | 1019.2 hPa | 0 mm | - | 5 W/m² | - |
| 1777851567 | 21.11° C | 90% | 1019.4 hPa | 0 mm | - | 3 W/m² | - |
| 1777851263 | 21.11° C | 90% | 1019.3 hPa | 0 mm | - | 2 W/m² | - |
| 1777850960 | 21.67° C | 90% | 1019.3 hPa | 0 mm | - | 3 W/m² | - |
| 1777850657 | 21.67° C | 90% | 1019.2 hPa | 0 mm | - | 7 W/m² | - |
| 1777850354 | 21.67° C | 89% | 1019.2 hPa | 0 mm | - | 10 W/m² | - |
| 1777850052 | 21.67° C | 88% | 1019.1 hPa | 0 mm | - | 9 W/m² | - |
| 1777849748 | 22.22° C | 88% | 1019.2 hPa | 0 mm | - | 10 W/m² | - |
| 1777849444 | 22.22° C | 88% | 1019.4 hPa | 0 mm | - | 16 W/m² | - |
| 1777849142 | 22.22° C | 88% | 1019.1 hPa | 0 mm | - | 20 W/m² | - |
| 1777848838 | 22.22° C | 88% | 1019.1 hPa | 0 mm | - | 17 W/m² | - |
| 1777848534 | 22.22° C | 88% | 1019.1 hPa | 0 mm | - | 18 W/m² | - |
| 1777848231 | 22.22° C | 88% | 1019.1 hPa | 0 mm | - | 24 W/m² | - |
| 1777847929 | 22.22° C | 88% | 1018.9 hPa | 0 mm | - | 22 W/m² | - |
* Rain latest hour (hover to see other rain measurements)
** Current wind speed in m/s (hover to see current wind gust speed)